This is the latest recevied weather packets stored in our database for station/object W2GRK-15. If no packets are shown the sender has not sent any weather packets the latest 10 day(s).
| Time | Temp. | Humidity | Pressure | Rain* | Wind** | Luminosity | Snow |
|---|---|---|---|---|---|---|---|
| 1777841304 | 15.56° C | 29% | 1011.1 hPa | 0 mm | - | 101 W/m² | - |
| 1777840290 | 15.56° C | 29% | 1011.1 hPa | 0 mm | - | 303 W/m² | - |
| 1777840097 | 15.56° C | 30% | 1011.3 hPa | 0 mm | - | 440 W/m² | - |
| 1777839855 | 15.56° C | 30% | 1011.2 hPa | 0 mm | - | 440 W/m² | - |
| 1777839678 | 15.56° C | 29% | 1011.2 hPa | 0 mm | - | 461 W/m² | - |
| 1777839437 | 15° C | 31% | 1011.5 hPa | 0 mm | - | 460 W/m² | - |
| 1777839018 | 15° C | 30% | 1011.2 hPa | 0 mm | - | 440 W/m² | - |
| 1777838925 | 15° C | 30% | 1011.5 hPa | 0 mm | - | 297 W/m² | - |
| 1777838881 | 15.56° C | 30% | 1011.4 hPa | 0 mm | - | 103 W/m² | - |
| 1777838776 | 15.56° C | 31% | 1011.5 hPa | 0 mm | - | 84 W/m² | - |
| 1777838003 | 15.56° C | 31% | 1011.4 hPa | 0 mm | - | 535 W/m² | - |
| 1777837762 | 15.56° C | 32% | 1011.4 hPa | 0 mm | - | 507 W/m² | - |
| 1777837584 | 15.56° C | 32% | 1011.5 hPa | 0 mm | - | 585 W/m² | - |
| 1777837343 | 15.56° C | 30% | 1011.5 hPa | 0 mm | - | 552 W/m² | - |
| 1777836683 | 15.56° C | 31% | 1011.9 hPa | 0 mm | - | 616 W/m² | - |
| 1777836441 | 15° C | 31% | 1012.1 hPa | 0 mm | - | 609 W/m² | - |
| 1777836349 | 15° C | 31% | 1012 hPa | 0 mm | - | 618 W/m² | - |
| 1777836136 | 15° C | 31% | 1011.8 hPa | 0 mm | - | 618 W/m² | - |
| 1777836023 | 15° C | 32% | 1012 hPa | 0 mm | - | 631 W/m² | - |
| 1777835668 | 14.44° C | 32% | 1011.7 hPa | 0 mm | - | 517 W/m² | - |
| 1777835057 | 15° C | 32% | 1012.1 hPa | 0 mm | - | 739 W/m² | - |
| 1777834703 | 15° C | 32% | 1011.8 hPa | 0 mm | - | 781 W/m² | - |
| 1777834461 | 15° C | 33% | 1012.2 hPa | 0 mm | - | 826 W/m² | - |
| 1777834368 | 15° C | 34% | 1012.1 hPa | 0 mm | - | 250 W/m² | - |
| 1777834284 | 15.56° C | 33% | 1012.2 hPa | 0 mm | - | 189 W/m² | - |
* Rain latest hour (hover to see other rain measurements)
** Current wind speed in m/s (hover to see current wind gust speed)